Manistique, MI

9:37 AM EST on January 21, 2017 (GMT -0500)
Manistique

Weather History for KISQ - October, 2012

Change the Weather History Date:

Sunday, October 7, 2012

  Actual Average Record
Temperature  
Mean Temperature 40 °F -  
Max Temperature 51 °F 55 °F 70 °F (1963)
Min Temperature 30 °F 37 °F 23 °F (1964)
Degree Days  
Heating Degree Days 24    
Moisture  
Dew Point 27 °F    
Average Humidity 63    
Maximum Humidity 93    
Minimum Humidity 30    
Precipitation  
Precipitation 0.00 in - - ()
Sea Level Pressure  
Sea Level Pressure 30.05 in    
Wind  
Wind Speed 5 mph (West)    
Max Wind Speed 13 mph    
Max Gust Speed 20 mph    
Visibility 10 miles    
Events      
Averages and records for this station are not official NWS values.
T = Trace of Precipitation, MM = Missing Value Source: NWS Daily Summary

Daily Weather History Graph

Daily Weather History Graph

Search for Another Location

Airport or City:

Trip Planner

Search our weather history database for the weather conditions in past years. The results will help you decide how hot, cold, wet, or windy it might be!

Date:

Astronomy

Oct. 07, 2012 Rise Set
Actual Time 7:51 AM EDT 7:12 PM EDT
Civil Twilight 7:21 AM EDT 7:42 PM EDT
Nautical Twilight 6:47 AM EDT 8:16 PM EDT
Astronomical Twilight 6:12 AM EDT 8:51 PM EDT
Moon No Moon Rise 2:41 PM EDT (10/7)
Length of Visible Light 12h 20m
Length of Day
11h 20m
Waning Gibbous, 56% of the Moon is Illuminated
Oct 7
Waning Gibbous
Oct 8
Last Quarter
Oct 15
New
Oct 21
First Quarter
Oct 29
Full

Hourly Weather History & Observations

Time (EDT) Temp. Windchill Dew Point Humidity Pressure Visibility Wind Dir Wind Speed Gust Speed Precip Events Conditions
12:15 AM 35.6 °F 29.2 °F 32.0 °F 87% 30.11 in 10.0 mi NW 8.1 mph - N/A   Overcast
12:35 AM 35.6 °F 31.7 °F 33.8 °F 93% 30.11 in 10.0 mi NNW 4.6 mph - N/A   Overcast
12:54 AM 35.6 °F 31.7 °F 32.0 °F 87% 30.11 in 10.0 mi NW 4.6 mph - N/A   Overcast
1:15 AM 35.6 °F 31.7 °F 32.0 °F 87% 30.10 in 10.0 mi West 4.6 mph - N/A   Overcast
1:34 AM 33.8 °F 28.6 °F 32.0 °F 93% 30.10 in 10.0 mi NW 5.8 mph - N/A   Mostly Cloudy
1:54 AM 33.8 °F 29.6 °F 30.2 °F 87% 30.10 in 10.0 mi NW 4.6 mph - N/A   Mostly Cloudy
2:15 AM 33.8 °F 30.8 °F 32.0 °F 93% 30.10 in 10.0 mi NW 3.5 mph - N/A   Overcast
2:34 AM 33.8 °F - 32.0 °F 93% 30.11 in 10.0 mi Calm Calm - N/A   Overcast
3:15 AM 33.8 °F - 30.2 °F 87% 30.10 in 10.0 mi Calm Calm - N/A   Overcast
3:34 AM 33.8 °F 30.8 °F 30.2 °F 87% 30.09 in 10.0 mi NW 3.5 mph - N/A   Overcast
3:55 AM 33.8 °F 28.6 °F 30.2 °F 87% 30.09 in 10.0 mi WNW 5.8 mph - N/A   Scattered Clouds
4:14 AM 33.8 °F 29.6 °F 30.2 °F 87% 30.09 in 10.0 mi NW 4.6 mph - N/A   Clear
4:34 AM 32.0 °F 27.5 °F 28.4 °F 87% 30.08 in 10.0 mi NNW 4.6 mph - N/A   Clear
4:55 AM 30.2 °F 25.4 °F 28.4 °F 93% 30.08 in 10.0 mi NW 4.6 mph - N/A   Scattered Clouds
5:14 AM 30.2 °F - 28.4 °F 93% 30.09 in 10.0 mi Calm Calm - N/A   Mostly Cloudy
5:35 AM 30.2 °F - 28.4 °F 93% 30.09 in 10.0 mi Calm Calm - N/A   Overcast
5:55 AM 30.2 °F - 28.4 °F 93% 30.09 in 10.0 mi Calm Calm - N/A   Overcast
6:14 AM 30.2 °F - 28.4 °F 93% 30.09 in 10.0 mi Calm Calm - N/A   Overcast
6:35 AM 32.0 °F - 30.2 °F 93% 30.08 in 10.0 mi Calm Calm - N/A   Overcast
6:54 AM 32.0 °F 28.7 °F 30.2 °F 93% 30.08 in 10.0 mi West 3.5 mph - N/A   Overcast
7:14 AM 33.8 °F - 30.2 °F 87% 30.08 in 10.0 mi Calm Calm - N/A   Overcast
7:35 AM 33.8 °F - 30.2 °F 87% 30.08 in 10.0 mi Calm Calm - N/A   Overcast
7:54 AM 33.8 °F - 30.2 °F 87% 30.08 in 10.0 mi Calm Calm - N/A   Overcast
8:15 AM 33.8 °F 29.6 °F 30.2 °F 87% 30.07 in 10.0 mi NW 4.6 mph - N/A   Overcast
8:35 AM 33.8 °F 30.8 °F 30.2 °F 87% 30.08 in 10.0 mi NW 3.5 mph - N/A   Overcast
8:54 AM 35.6 °F 29.9 °F 30.2 °F 81% 30.08 in 10.0 mi WNW 6.9 mph - N/A   Overcast
9:15 AM 35.6 °F 29.9 °F 30.2 °F 81% 30.08 in 10.0 mi WNW 6.9 mph - N/A   Overcast
9:34 AM 35.6 °F 29.9 °F 32.0 °F 87% 30.08 in 10.0 mi WNW 6.9 mph - N/A   Overcast
9:54 AM 37.4 °F 32.8 °F 33.8 °F 87% 30.08 in 10.0 mi WNW 5.8 mph - N/A   Mostly Cloudy
10:15 AM 39.2 °F 35.0 °F 33.8 °F 81% 30.08 in 10.0 mi WNW 5.8 mph - N/A   Scattered Clouds
10:34 AM 42.8 °F 39.3 °F 33.8 °F 70% 30.07 in 10.0 mi WNW 5.8 mph - N/A   Clear
10:55 AM 44.6 °F 41.4 °F 33.8 °F 66% 30.07 in 10.0 mi NW 5.8 mph - N/A   Clear
11:15 AM 44.6 °F 40.2 °F 30.2 °F 57% 30.07 in 10.0 mi NW 8.1 mph - N/A   Clear
11:34 AM 44.6 °F 39.7 °F 30.2 °F 57% 30.06 in 10.0 mi WNW 9.2 mph 16.1 mph N/A   Clear
11:55 AM 46.4 °F 41.9 °F 28.4 °F 50% 30.06 in 10.0 mi WNW 9.2 mph 19.6 mph N/A   Clear
12:14 PM 48.2 °F - 26.6 °F 43% 30.06 in 10.0 mi WNW 6.9 mph - N/A   Scattered Clouds
12:34 PM 46.4 °F 41.5 °F 24.8 °F 43% 30.05 in 10.0 mi WSW 10.4 mph - N/A   Scattered Clouds
12:55 PM 48.2 °F - 24.8 °F 40% 30.05 in 10.0 mi West 5.8 mph 16.1 mph N/A   Scattered Clouds
1:14 PM 48.2 °F - 21.2 °F 34% 30.05 in 10.0 mi WNW 9.2 mph - N/A   Scattered Clouds
1:35 PM 46.4 °F 44.3 °F 19.4 °F 34% 30.05 in 10.0 mi West 4.6 mph - N/A   Scattered Clouds
1:55 PM 48.2 °F - 19.4 °F 32% 30.04 in 10.0 mi SW 6.9 mph - N/A   Mostly Cloudy
2:14 PM 46.4 °F 45.2 °F 19.4 °F 34% 30.03 in 10.0 mi SW 3.5 mph - N/A   Mostly Cloudy
2:35 PM 51.8 °F - 21.2 °F 30% 30.02 in 10.0 mi WSW 4.6 mph - N/A   Mostly Cloudy
2:54 PM 48.2 °F - 21.2 °F 34% 30.02 in 10.0 mi WSW 6.9 mph - N/A   Mostly Cloudy
3:14 PM 48.2 °F - 21.2 °F 34% 30.01 in 10.0 mi SW 6.9 mph - N/A   Mostly Cloudy
3:35 PM 48.2 °F - 21.2 °F 34% 30.01 in 10.0 mi SW 6.9 mph - N/A   Mostly Cloudy
3:54 PM 46.4 °F 42.4 °F 23.0 °F 40% 30.01 in 10.0 mi SSW 8.1 mph - N/A   Mostly Cloudy
4:15 PM 48.2 °F - 24.8 °F 40% 30.00 in 10.0 mi SSW 11.5 mph 17.3 mph N/A   Scattered Clouds
4:35 PM 48.2 °F - 26.6 °F 43% 30.00 in 10.0 mi SSW 9.2 mph 17.3 mph N/A   Scattered Clouds
4:54 PM 48.2 °F - 26.6 °F 43% 29.99 in 10.0 mi SSW 10.4 mph 19.6 mph N/A   Scattered Clouds
5:15 PM 48.2 °F - 26.6 °F 43% 29.99 in 10.0 mi SW 11.5 mph 16.1 mph N/A   Scattered Clouds
5:35 PM 46.4 °F 41.1 °F 26.6 °F 46% 29.99 in 10.0 mi SSW 11.5 mph 18.4 mph N/A   Scattered Clouds
5:54 PM 46.4 °F 40.7 °F 24.8 °F 43% 29.99 in 10.0 mi SW 12.7 mph 17.3 mph N/A   Clear
6:15 PM 46.4 °F 41.5 °F 24.8 °F 43% 29.99 in 10.0 mi SW 10.4 mph - N/A   Clear
6:34 PM 46.4 °F 41.5 °F 24.8 °F 43% 29.99 in 10.0 mi SSW 10.4 mph 17.3 mph N/A   Clear
6:55 PM 46.4 °F 41.5 °F 23.0 °F 40% 29.99 in 10.0 mi SW 10.4 mph 16.1 mph N/A   Clear
7:15 PM 46.4 °F 42.4 °F 23.0 °F 40% 29.99 in 10.0 mi SW 8.1 mph - N/A   Clear
7:34 PM 46.4 °F 41.9 °F 24.8 °F 43% 29.98 in 10.0 mi SW 9.2 mph - N/A   Clear
7:55 PM 46.4 °F 42.9 °F 24.8 °F 43% 29.98 in 10.0 mi SW 6.9 mph - N/A   Clear
8:14 PM 46.4 °F 42.4 °F 24.8 °F 43% 29.98 in 10.0 mi SSW 8.1 mph - N/A   Clear
8:55 PM 46.4 °F 41.9 °F 24.8 °F 43% 29.98 in 10.0 mi SW 9.2 mph - N/A   Clear
9:14 PM 46.4 °F 43.5 °F 26.6 °F 46% 29.99 in 10.0 mi SW 5.8 mph - N/A   Clear
9:35 PM 44.6 °F 42.2 °F 26.6 °F 49% 29.99 in 10.0 mi WSW 4.6 mph - N/A   Clear
9:54 PM 44.6 °F 42.2 °F 24.8 °F 46% 29.99 in 10.0 mi WSW 4.6 mph - N/A   Clear
10:14 PM 44.6 °F 42.2 °F 21.2 °F 39% 29.99 in 10.0 mi WSW 4.6 mph - N/A   Clear
10:34 PM 42.8 °F 40.1 °F 19.4 °F 39% 29.99 in 10.0 mi WSW 4.6 mph - N/A   Clear
10:54 PM 42.8 °F 41.1 °F 21.2 °F 42% 29.99 in 10.0 mi WSW 3.5 mph - N/A   Clear
11:15 PM 42.8 °F - 21.2 °F 42% 29.99 in 10.0 mi Calm Calm - N/A   Clear
11:34 PM 41.0 °F 39.0 °F 23.0 °F 49% 29.99 in 10.0 mi WSW 3.5 mph - N/A   Clear
11:55 PM 42.8 °F 40.1 °F 21.2 °F 42% 29.99 in 10.0 mi WSW 4.6 mph - N/A   Clear